When you browse on this site, cookies collect data to enhance your experience and personalize the content and advertising you see.
Visit our Privacy Policy to learn more. By continuing to use the site, you agree to this use of cookies and data.

Météo par heure à Melbourne

Ce jour, 9 Juillet, Jeudi

Heure Température Précipitation Vent Pression Humidité
00:00 +8°C° 0 mm 2 m/s 769 mmHg 86%
01:00 +8°C° 0 mm 2 m/s 769 mmHg 87%
02:00 +8°C° 0 mm 2 m/s 769 mmHg 87%
03:00 +8°C° 0 mm 2 m/s 769 mmHg 87%
04:00 +7°C° 0 mm 2 m/s 769 mmHg 86%
05:00 +7°C° 0 mm 2 m/s 769 mmHg 87%
06:00 +7°C° 0 mm 2 m/s 769 mmHg 87%
07:00 +7°C° 0 mm 2 m/s 769 mmHg 87%
08:00 +8°C° 0 mm 3 m/s 769 mmHg 83%
09:00 +10°C° 0 mm 3 m/s 769 mmHg 78%
10:00 +11°C° 0 mm 3 m/s 769 mmHg 71%
11:00 +13°C° 0 mm 3 m/s 769 mmHg 67%
12:00 +14°C° 0 mm 3 m/s 768 mmHg 63%
13:00 +15°C° 0 mm 4 m/s 768 mmHg 58%
14:00 +16°C° 0 mm 3 m/s 768 mmHg 59%
15:00 +16°C° 0 mm 3 m/s 767 mmHg 60%
16:00 +16°C° 0 mm 2 m/s 767 mmHg 62%
17:00 +14°C° 0 mm 2 m/s 767 mmHg 69%
18:00 +13°C° 0 mm 2 m/s 768 mmHg 76%
19:00 +12°C° 0 mm 2 m/s 768 mmHg 82%
20:00 +10°C° 0 mm 3 m/s 768 mmHg 83%
21:00 +10°C° 0 mm 3 m/s 768 mmHg 84%
22:00 +10°C° 0 mm 3 m/s 768 mmHg 84%
23:00 +10°C° 0 mm 3 m/s 768 mmHg 84%

Demain, 10 Juillet, Vendredi

Heure Température Précipitation Vent Pression Humidité
00:00 +9°C° 0 mm 3 m/s 767 mmHg 83%
01:00 +9°C° 0 mm 3 m/s 767 mmHg 83%
02:00 +9°C° 0 mm 3 m/s 767 mmHg 83%
03:00 +9°C° 0 mm 3 m/s 767 mmHg 84%
04:00 +9°C° 0 mm 3 m/s 767 mmHg 84%
05:00 +9°C° 0 mm 3 m/s 767 mmHg 84%
06:00 +8°C° 0 mm 3 m/s 767 mmHg 84%
07:00 +8°C° 0 mm 2 m/s 767 mmHg 84%
08:00 +9°C° 0 mm 2 m/s 766 mmHg 81%
09:00 +10°C° 0 mm 2 m/s 766 mmHg 77%
10:00 +12°C° 0 mm 3 m/s 766 mmHg 73%
11:00 +13°C° 0 mm 3 m/s 766 mmHg 71%
12:00 +14°C° 0 mm 3 m/s 765 mmHg 69%
13:00 +16°C° 0 mm 3 m/s 764 mmHg 67%
14:00 +16°C° 0 mm 3 m/s 764 mmHg 69%
15:00 +14°C° 0 mm 4 m/s 764 mmHg 71%
16:00 +14°C° 0 mm 4 m/s 763 mmHg 73%
17:00 +13°C° 0 mm 4 m/s 763 mmHg 77%
18:00 +12°C° 0 mm 3 m/s 764 mmHg 82%
19:00 +11°C° 0 mm 3 m/s 764 mmHg 87%
20:00 +12°C° 0 mm 2 m/s 764 mmHg 87%
21:00 +12°C° 0 mm 2 m/s 763 mmHg 87%
22:00 +12°C° 0 mm 2 m/s 763 mmHg 88%
23:00 +12°C° 0 mm 2 m/s 763 mmHg 88%

Après-demain, 11 Juillet, Samedi

Heure Température Précipitation Vent Pression Humidité
00:00 +11°C° 0 mm 1 m/s 763 mmHg 88%
01:00 +11°C° 0 mm 1 m/s 762 mmHg 88%
02:00 +11°C° 0 mm 1 m/s 762 mmHg 89%
03:00 +11°C° 0 mm 1 m/s 762 mmHg 91%
04:00 +10°C° 0 mm 1 m/s 761 mmHg 92%
05:00 +10°C° 0 mm 1 m/s 761 mmHg 92%
06:00 +9°C° 0 mm 2 m/s 761 mmHg 92%
07:00 +9°C° 0 mm 2 m/s 761 mmHg 92%
08:00 +10°C° 0.2 mm 2 m/s 761 mmHg 90%
09:00 +12°C° 0.2 mm 2 m/s 761 mmHg 87%
10:00 +12°C° 0.2 mm 2 m/s 761 mmHg 85%
11:00 +12°C° 2.8 mm 1 m/s 760 mmHg 86%
12:00 +12°C° 2.8 mm 1 m/s 760 mmHg 87%
13:00 +12°C° 2.8 mm 1 m/s 760 mmHg 88%
14:00 +12°C° 0.2 mm 1 m/s 759 mmHg 87%
15:00 +12°C° 0.2 mm 1 m/s 759 mmHg 86%
16:00 +12°C° 0.2 mm 1 m/s 759 mmHg 86%
17:00 +11°C° 0 mm 1 m/s 759 mmHg 88%
18:00 +11°C° 0 mm 1 m/s 759 mmHg 90%
19:00 +10°C° 0 mm 1 m/s 760 mmHg 92%
20:00 +9°C° 0 mm 0 m/s 760 mmHg 92%
21:00 +9°C° 0 mm 0 m/s 760 mmHg 93%
22:00 +8°C° 0 mm 0 m/s 760 mmHg 94%
23:00 +8°C° 0 mm 0 m/s 760 mmHg 94%

12 Juillet, Dimanche

Heure Température Précipitation Vent Pression Humidité
00:00 +8°C° 0 mm 0 m/s 760 mmHg 94%
01:00 +8°C° 0 mm 0 m/s 760 mmHg 95%
02:00 +8°C° 0.1 mm 0 m/s 760 mmHg 94%
03:00 +8°C° 0.1 mm 0 m/s 760 mmHg 94%
04:00 +8°C° 0.1 mm 0 m/s 760 mmHg 93%
05:00 +8°C° 0 mm 0 m/s 760 mmHg 93%
06:00 +7°C° 0 mm 0 m/s 761 mmHg 93%
07:00 +7°C° 0 mm 0 m/s 761 mmHg 92%
08:00 +8°C° 0 mm 0 m/s 761 mmHg 90%
09:00 +9°C° 0 mm 0 m/s 762 mmHg 88%
10:00 +9°C° 0 mm 0 m/s 762 mmHg 86%
11:00 +11°C° 0 mm 1 m/s 762 mmHg 83%
12:00 +12°C° 0 mm 1 m/s 761 mmHg 80%
13:00 +13°C° 0 mm 1 m/s 761 mmHg 77%
14:00 +13°C° 0 mm 1 m/s 761 mmHg 77%
15:00 +13°C° 0 mm 1 m/s 761 mmHg 77%
16:00 +13°C° 0 mm 2 m/s 761 mmHg 77%
17:00 +12°C° 0 mm 2 m/s 762 mmHg 81%
18:00 +12°C° 0 mm 2 m/s 762 mmHg 86%
19:00 +11°C° 0 mm 1 m/s 762 mmHg 90%
20:00 +9°C° 0 mm 2 m/s 763 mmHg 92%
21:00 +9°C° 0 mm 2 m/s 763 mmHg 93%
22:00 +9°C° 0 mm 2 m/s 763 mmHg 95%
23:00 +9°C° 0 mm 2 m/s 763 mmHg 95%

13 Juillet, Lundi

Heure Température Précipitation Vent Pression Humidité
00:00 +9°C° 0 mm 2 m/s 763 mmHg 95%
01:00 +9°C° 0 mm 3 m/s 764 mmHg 96%
02:00 +9°C° 0 mm 2 m/s 764 mmHg 96%
03:00 +9°C° 0 mm 2 m/s 764 mmHg 96%
04:00 +9°C° 0 mm 2 m/s 764 mmHg 96%
05:00 +9°C° 0 mm 3 m/s 764 mmHg 96%
06:00 +9°C° 0 mm 3 m/s 765 mmHg 96%
07:00 +9°C° 0 mm 3 m/s 765 mmHg 96%
08:00 +10°C° 0 mm 4 m/s 765 mmHg 91%
09:00 +11°C° 0 mm 4 m/s 766 mmHg 87%
10:00 +12°C° 0 mm 4 m/s 766 mmHg 83%
11:00 +13°C° 0 mm 4 m/s 766 mmHg 78%
12:00 +14°C° 0 mm 4 m/s 766 mmHg 73%
13:00 +15°C° 0 mm 4 m/s 766 mmHg 68%
14:00 +15°C° 0 mm 4 m/s 766 mmHg 69%
15:00 +15°C° 0 mm 5 m/s 766 mmHg 69%
16:00 +14°C° 0 mm 5 m/s 767 mmHg 70%
17:00 +13°C° 0 mm 4 m/s 767 mmHg 74%
18:00 +12°C° 0 mm 4 m/s 768 mmHg 78%
19:00 +11°C° 0 mm 3 m/s 768 mmHg 83%
20:00 +11°C° 0 mm 3 m/s 769 mmHg 85%
21:00 +10°C° 0 mm 3 m/s 769 mmHg 87%
22:00 +10°C° 0 mm 3 m/s 769 mmHg 89%
23:00 +9°C° 0 mm 3 m/s 769 mmHg 90%

14 Juillet, Mardi

Heure Température Précipitation Vent Pression Humidité
00:00 +9°C° 0 mm 3 m/s 770 mmHg 92%
01:00 +9°C° 0 mm 2 m/s 770 mmHg 93%
02:00 +9°C° 0 mm 3 m/s 770 mmHg 94%
03:00 +9°C° 0 mm 3 m/s 770 mmHg 95%
04:00 +9°C° 0 mm 3 m/s 770 mmHg 96%
05:00 +9°C° 0 mm 3 m/s 770 mmHg 96%
06:00 +9°C° 0 mm 3 m/s 771 mmHg 96%
07:00 +9°C° 0 mm 3 m/s 771 mmHg 96%
08:00 +10°C° 0 mm 3 m/s 771 mmHg 90%
09:00 +11°C° 0 mm 3 m/s 771 mmHg 83%
10:00 +11°C° 0 mm 4 m/s 771 mmHg 77%
11:00 +12°C° 0 mm 4 m/s 771 mmHg 72%
12:00 +13°C° 0 mm 4 m/s 771 mmHg 66%
13:00 +14°C° 0 mm 4 m/s 770 mmHg 60%
14:00 +14°C° 0 mm 4 m/s 770 mmHg 60%
15:00 +13°C° 0 mm 4 m/s 770 mmHg 60%
16:00 +13°C° 0 mm 4 m/s 770 mmHg 60%
17:00 +12°C° 0 mm 4 m/s 770 mmHg 65%
18:00 +11°C° 0 mm 4 m/s 771 mmHg 70%
19:00 +10°C° 0 mm 3 m/s 771 mmHg 74%
20:00 +8°C° 0 mm 4 m/s 771 mmHg 77%
21:00 +8°C° 0 mm 4 m/s 771 mmHg 80%
22:00 +8°C° 0 mm 4 m/s 771 mmHg 83%
23:00 +7°C° 0 mm 4 m/s 771 mmHg 83%
Voir plus